Lid_Strength_Index
1 1 1 1 0 -0 -0 -0 0 1 0 0 1 2 2 1 1 2 2 3 3 3 3 3 3 3 4 9 7 5 1 3 6 6 7 7 8 8 10 9 9 10 11 11 10 11 11
1 1 1 1 0 0 -0 -0 0 1 1 1 1 1 2 1 1 2 2 3 3 3 3 3 3 3 7 11 6 6 5 7 7 8 7 7 7 6 9 10 10 11 11 11 11 11 11
1 1 1 1 1 1 0 1 1 1 1 1 1 1 3 2 2 2 3 3 3 3 3 3 2 4 8 8 6 6 7 8 8 8 8 6 5 7 8 10 9 9 11 11 12 11 12
1 1 1 1 1 1 1 1 1 1 1 1 1 1 3 3 2 3 3 4 4 4 3 3 3 7 10 5 6 6 8 7 7 7 6 5 5 7 8 8 9 10 11 14 12 11 11
1 1 1 1 1 2 2 1 1 1 1 1 1 1 2 3 3 3 3 4 4 3 3 3 6 8 9 4 7 7 8 8 7 7 6 4 6 8 8 10 12 11 14 14 13 11 11
2 2 1 1 1 1 2 1 1 1 1 1 1 1 1 3 3 3 4 5 5 4 4 3 5 9 8 8 7 7 8 7 8 7 7 7 8 11 11 11 14 13 13 14 14 12 12
2 1 1 1 2 2 1 1 1 1 1 1 1 1 1 3 4 4 6 8 7 8 6 10 10 9 8 6 7 8 7 7 8 8 10 10 10 12 10 10 10 10 12 13 13 11 12
2 2 2 2 2 2 2 1 1 1 1 1 1 1 1 3 4 5 8 9 7 7 9 6 6 6 5 6 9 8 7 9 9 11 10 11 12 10 9 10 11 12 12 14 13 11 11
2 2 2 2 2 2 1 1 1 1 1 1 1 1 1 3 5 8 9 8 6 7 10 9 6 7 7 8 10 9 8 9 10 10 10 11 11 10 11 12 12 14 13 14 13 13 13
2 2 2 2 2 2 1 1 1 1 1 2 1 1 2 4 6 10 9 7 6 6 14 12 8 7 8 8 10 8 8 8 9 10 11 11 11 11 12 12 12 14 12 12 13 14 17
2 2 2 2 2 2 2 2 1 1 1 2 2 2 3 3 7 10 8 8 6 8 19 11 9 7 9 9 10 10 8 8 10 10 10 11 12 12 13 13 12 14 12 13 14 16 18
3 3 2 2 2 2 2 2 2 2 2 2 2 2 4 5 8 6 8 8 8 14 18 12 10 11 11 10 11 11 10 8 9 11 11 12 11 12 12 12 12 12 13 14 16 17 20
3 3 2 2 2 2 2 2 2 2 2 2 2 2 4 6 7 6 5 9 16 19 11 13 12 11 11 12 12 12 12 12 12 13 14 13 13 12 11 13 12 13 16 19 19 20 21
3 3 2 2 2 2 2 2 2 2 2 2 3 3 3 4 5 5 5 10 18 15 14 11 11 11 12 11 12 12 13 13 13 12 14 14 15 12 11 12 14 15 15 18 20 21 20
3 3 2 2 2 2 2 2 2 3 3 3 3 4 4 6 5 4 8 14 15 14 12 13 12 13 13 12 12 13 13 13 12 12 13 14 14 13 12 12 12 15 16 14 17 19 20
2 2 2 2 2 2 2 2 2 3 3 3 4 6 6 5 5 4 10 12 12 9 9 11 14 13 13 13 13 13 13 12 12 11 11 12 15 13 12 13 13 14 13 16 17 20 21
3 2 2 3 2 3 3 3 3 3 3 3 6 7 5 4 4 7 13 12 10 7 7 10 13 14 13 12 12 13 13 13 12 12 11 12 13 14 13 15 16 15 16 15 16 17 20
3 2 2 3 3 3 3 3 3 3 3 4 7 11 6 4 10 12 12 10 9 9 7 8 9 11 13 12 12 12 13 12 11 10 12 12 14 17 15 13 14 14 15 15 18 19 18
3 2 3 3 3 3 3 3 3 3 3 6 8 8 6 6 13 14 11 10 9 9 8 9 9 10 11 12 13 12 12 10 10 11 11 11 14 17 16 14 13 15 15 14 15 17 19
3 2 3 3 3 3 3 3 3 3 3 6 8 12 7 8 11 12 12 12 11 8 8 8 9 9 10 12 11 13 13 11 11 11 8 9 13 15 16 15 14 16 15 15 16 19 19
3 2 3 3 3 3 3 3 3 3 4 5 9 9 8 11 10 12 11 11 12 11 8 8 10 10 11 13 12 14 12 12 11 10 10 11 14 13 14 13 13 14 15 16 16 17 18
3 3 3 3 3 3 3 4 4 3 4 6 9 9 10 12 9 11 12 12 11 10 9 9 10 10 10 11 11 11 12 13 12 12 12 12 15 14 15 13 13 15 15 15 16 16 16
3 3 3 4 3 3 3 4 4 4 4 6 8 8 11 12 12 12 12 11 10 9 8 7 8 9 9 9 9 9 10 10 11 12 13 13 14 16 17 15 15 17 15 15 15 15 15
3 3 3 3 3 3 4 4 4 4 4 6 6 6 9 12 12 11 10 9 10 9 9 7 7 8 8 7 8 8 9 10 10 10 11 13 15 16 18 17 22 15 13 13 14 15 14
3 3 3 3 3 3 4 4 4 3 3 4 5 7 8 11 11 11 11 10 10 8 8 8 7 6 6 8 11 13 13 12 12 11 11 11 14 17 19 19 17 15 14 15 15 16 13
2 3 3 3 4 4 4 4 3 3 3 3 3 4 6 10 12 10 11 10 11 11 10 8 6 6 7 10 12 15 16 14 14 13 11 12 12 15 19 20 19 15 14 13 13 17 13
3 2 2 3 3 4 4 4 3 3 3 2 3 3 5 9 10 10 11 11 9 10 11 10 9 8 8 11 14 15 15 12 15 15 15 14 15 17 18 19 16 13 13 12 16 15 12
4 3 2 2 3 3 3 3 3 3 2 3 4 3 4 8 8 8 8 10 9 9 11 9 9 9 10 12 12 15 14 13 14 13 14 15 16 16 16 18 18 11 12 14 12 12 11
4 4 3 2 2 2 3 3 2 3 2 2 4 2 3 6 7 7 7 6 7 7 9 9 9 9 9 10 11 12 14 13 13 16 12 15 13 15 14 15 12 11 12 11 11 11 11